Weather History for Evanston, WY

Change the Weather History Date:

Monday, January 6, 2014

  Actual Average Record
Temperature  
Mean Temperature 16 °F 21 °F  
Max Temperature 26 °F 28 °F 42 °F (1999)
Min Temperature 5 °F 14 °F 0 °F (2004)
Degree Days  
Heating Degree Days 49 44  
Month to date heating degree days 266 264  
Since 1 July heating degree days 3578 3743  
Cooling Degree Days 0 0  
Month to date cooling degree days 0 0  
Year to date cooling degree days 0 0  
Moisture  
Dew Point 2 °F    
Average Humidity 59    
Maximum Humidity 76    
Minimum Humidity 42    
Precipitation  
Precipitation 0.00 in 0.02 in 0.07 in (2008)
Month to date precipitation T 0.12  
Year to date precipitation T 0.12  
Sea Level Pressure  
Sea Level Pressure 30.55 in    
Wind  
Wind Speed 11 mph (SW)    
Max Wind Speed 17 mph    
Max Gust Speed 21 mph    
Visibility 10 miles    
Events      
T = Trace of Precipitation, MM = Missing Value Source: NWS Daily Summary

Daily Weather History Graph

Daily Weather History Graph

Search for Another Location

Airport:

Trip Planner

Search our weather history database for the weather conditions in past years. The results will help you decide how hot, cold, wet, or windy it might be!

Date:

Astronomy

Jan. 06, 2014 Rise Set
Actual Time 7:49 AM MST 5:10 PM MST
Civil Twilight 7:19 AM MST 5:41 PM MST
Nautical Twilight 6:44 AM MST 6:15 PM MST
Astronomical Twilight 6:11 AM MST 6:49 PM MST
Moon 11:03 AM MST (1/6) 11:52 PM MST (1/6)
Length of Visible Light 10h 22m
Length of Day
9h 20m
Waxing Crescent, 35% of the Moon is Illuminated
Jan 6
Waxing Crescent
Jan 7
First Quarter
Jan 15
Full
Jan 23
Last Quarter
Jan 30
New

Hourly Weather History & Observations

Time (MST) Temp. Windchill Dew Point Humidity Pressure Visibility Wind Dir Wind Speed Gust Speed Precip Events Conditions
12:53 AM 6.1 °F -9.5 °F -0.9 °F 73% 30.56 in 10.0 mi WSW 11.5 mph - N/A   Clear
1:53 AM 7.0 °F -10.4 °F -2.0 °F 67% 30.54 in 10.0 mi WSW 15.0 mph - N/A   Clear
2:53 AM 5.0 °F -10.8 °F -4.0 °F 66% 30.58 in 10.0 mi WSW 11.5 mph - N/A   Clear
3:53 AM 7.0 °F -9.1 °F -2.9 °F 64% 30.58 in 10.0 mi WSW 12.7 mph - N/A   Clear
4:53 AM 6.1 °F -9.5 °F -2.0 °F 69% 30.61 in 10.0 mi WSW 11.5 mph - N/A   Clear
5:53 AM 6.1 °F -10.2 °F -2.0 °F 69% 30.63 in 10.0 mi WSW 12.7 mph - N/A   Clear
6:53 AM 6.1 °F -10.9 °F -2.0 °F 69% 30.64 in 10.0 mi WSW 13.8 mph - N/A   Clear
7:53 AM 5.0 °F -10.0 °F -2.0 °F 73% 30.67 in 10.0 mi SW 10.4 mph - N/A   Clear
8:53 AM 9.0 °F -5.9 °F -0.9 °F 64% 30.67 in 10.0 mi SW 11.5 mph - N/A   Clear
9:53 AM 10.9 °F -2.6 °F -0.9 °F 59% 30.67 in 10.0 mi SW 10.4 mph - N/A   Clear
10:53 AM 15.1 °F 2.5 °F 1.0 °F 54% 30.63 in 10.0 mi SW 10.4 mph - N/A   Clear
11:53 AM 17.1 °F - 3.9 °F 56% 30.58 in - North - - N/A   Clear
12:53 PM 19.0 °F 6.1 °F 5.0 °F 54% 30.56 in 10.0 mi SW 12.7 mph - N/A   Clear
1:53 PM 25.0 °F 12.6 °F 6.1 °F 45% 30.50 in 10.0 mi SW 15.0 mph - N/A   Clear
2:53 PM 25.0 °F 13.1 °F 6.1 °F 45% 30.50 in 10.0 mi SW 13.8 mph - N/A   Clear
3:53 PM 25.0 °F 13.6 °F 7.0 °F 46% 30.48 in 10.0 mi SW 12.7 mph - N/A   Clear
4:53 PM 21.0 °F 8.6 °F 6.1 °F 53% 30.50 in 10.0 mi SW 12.7 mph - N/A   Clear
5:53 PM 18.0 °F 4.8 °F 5.0 °F 57% 30.51 in 10.0 mi SW 12.7 mph - N/A   Clear
6:53 PM 19.0 °F 9.0 °F 3.9 °F 52% 30.50 in 10.0 mi SW 8.1 mph - N/A   Clear
7:53 PM 18.0 °F 9.8 °F 3.0 °F 52% 30.50 in 10.0 mi SW 5.8 mph - N/A   Clear
8:53 PM 18.0 °F 12.7 °F 3.0 °F 52% 30.47 in 10.0 mi SSW 3.5 mph - N/A   Clear
9:53 PM 17.1 °F 8.7 °F 3.9 °F 56% 30.45 in 10.0 mi South 5.8 mph - N/A   Clear
10:53 PM 15.1 °F 4.2 °F 3.0 °F 59% 30.42 in 10.0 mi SW 8.1 mph - N/A   Clear
11:53 PM 15.1 °F 4.2 °F 3.0 °F 59% 30.38 in 10.0 mi SSW 8.1 mph - N/A   Clear